Location: Church Tower
(37.7144°N, 119.6316°W)
Time: 19:53:38
(UTC+00:00)

Cosmos 2242 Rocket - Pass Details

Date: 15 November 2025
Orbit: 614 x 644 km, 82.5° (Epoch: 08 December)

Event Time Altitude Azimuth Distance (km) Brightness Sun altitude
Rises 12:39:19 0° 178° (S) 2,868 7.1 -23.7°
Reaches altitude 10° 12:41:32 10° 175° (S) 1,969 6.2 -23.2°
Maximum altitude 12:45:50 63° 95° (E) 690 3.9 -22.4°
Drops below altitude 10° 12:50:12 10° 14° (NNE) 1,996 6.2 -21.5°
Sets 12:52:28 0° 11° (N) 2,911 7.1 -21.1°
